Home > Weather > Mainz > Past weeks

Flag for Germany Past Weather in Mainz, Rhineland-Palatinate, Germany — Yesterday and Last 2 Weeks

Now
86 °F

Sunny.


Feels Like: 84 °F
Forecast: 62 / 86 °F
Wind: 10 mph from Southeast

Location: Wiesbaden Airport

Current Time: Aug 24, 2016 at 8:14:36 PM

Latest Report: Aug 24, 2016 at 6:58 PM


Visibility: N/A

Pressure: 30.13 "Hg

Humidity: 31%

Dew Point: 52 °F

Location of MainzLocation

Past Weather in Mainz — Graph

°F

Mainz Temperature Yesterday

Maximum temperature yesterday: 81 °F (at 5:58 PM)
Minimum temperature yesterday: 52 °F (at 6:58 AM)
Average temperature yesterday: 68 °F

High & Low Weather Summary for the Past Weeks

 TemperatureHumidityPressure
High88 °F (Aug 24, 4:58 PM)89% (Aug 22, 6:58 AM)30.39 "Hg (Aug 22, 6:58 AM)
Low46 °F (Aug 11, 3:58 AM)22% (Aug 16, 5:58 PM)29.79 "Hg (Aug 18, 5:58 PM)
Average66 °F59%30.11 "Hg
* Reported Aug 9 8:58 PM — Aug 24 6:58 PM, Mainz, Weather by CustomWeather, © 2016

Note: Actual official high and low records may vary slightly from our data, if they occured in-between our weather recording intervals... More about our weather records

Advertising

Mainz Weather History for the Previous 24 Hours

Scroll right to see more
 ConditionsComfort  
Time TempWeatherWind HumidityBarometerVisibility
6:58 PM
Wed, Aug 24
86 °FSunny.10 mph31%30.13 "HgN/A
5:58 PM88 °FSunny.9 mph29%30.13 "HgN/A
4:58 PM88 °FSunny.8 mph31%30.15 "HgN/A
3:58 PM86 °FSunny.9 mph33%30.16 "HgN/A
2:58 PM85 °FSunny.8 mph33%30.18 "HgN/A
1:03 PM82 °FPleasantly warm.9 mph37%30.21 "HgN/A
12:58 PM82 °FSunny.10 mph39%30.21 "HgN/A
11:58 AM79 °FSunny.9 mph44%30.23 "HgN/A
10:58 AM76 °FSunny.10 mph49%30.23 "HgN/A
9:58 AM73 °FSunny.10 mph50%30.24 "HgN/A
8:58 AM70 °FSunny.8 mph56%30.25 "HgN/A
7:58 AM66 °FSunny.No wind64%30.24 "HgN/A
6:58 AM57 °FClear.2 mph75%30.24 "HgN/A
5:58 AM57 °FClear.2 mph74%30.23 "HgN/A
4:58 AM60 °FClear.3 mph70%30.23 "HgN/A
3:58 AM61 °FClear.No wind68%30.24 "HgN/A
2:58 AM60 °FClear.2 mph71%30.24 "HgN/A
1:58 AM61 °FClear.3 mph68%30.24 "HgN/A
12:58 AM63 °FMild.N/A64%30.25 "HgN/A
11:58 PM
Tue, Aug 23
63 °FClear.No wind64%30.25 "HgN/A
10:58 PM69 °FClear.3 mph51%30.26 "HgN/A
9:58 PM72 °FClear.3 mph47%30.26 "HgN/A
8:58 PM75 °FSunny.3 mph41%30.26 "HgN/A
Weather by CustomWeather, © 2016

See weather overviewHow to use our weather pages